Temperature
20 19 19 20 24 28 28 28 29 28 28 27 27 27 27 26 26 24 21 20 20 20 19 19 19 19 19 19 19 19 19 19 19 19 19 19 19 19 19 19 19 19 19 19 19 19 19 19 19
20 20 20 23 28 28 28 28 28 28 27 27 26 26 26 25 23 21 20 20 20 20 19 19 19 19 20 19 19 19 19 19 19 19 19 19 19 19 19 19 19 19 19 19 19 19 19 19 19
20 20 22 27 29 28 28 28 28 28 27 27 27 26 25 24 22 21 20 20 20 20 19 19 20 19 20 19 19 19 19 19 19 19 19 19 19 19 19 19 19 19 19 19 18 18 18 18 18
20 22 25 28 29 29 29 29 28 28 27 27 27 26 24 22 22 21 20 20 20 20 20 19 20 20 19 19 19 19 19 19 19 19 19 19 19 19 19 19 19 19 19 19 18 18 18 18 18
21 25 29 29 29 29 29 29 28 28 28 27 27 26 24 22 21 21 21 21 21 20 20 19 20 20 19 19 19 19 19 19 19 19 19 19 19 19 19 19 19 19 18 18 18 18 18 19 19
25 28 29 29 29 29 30 28 28 28 28 27 27 26 23 22 21 21 21 21 21 20 20 19 20 19 19 19 19 19 19 19 19 19 19 19 19 19 19 19 19 19 18 18 18 18 18 18 18
27 29 30 30 29 29 29 28 29 29 28 27 27 26 24 22 21 21 21 21 20 20 20 20 19 19 19 19 19 19 19 19 19 19 19 19 19 19 19 19 19 19 18 18 18 18 18 18 18
26 30 30 30 30 29 29 28 28 28 28 26 26 27 25 22 21 21 21 21 20 20 20 20 20 19 19 19 19 19 19 19 19 19 19 19 19 19 19 19 19 19 19 18 18 18 18 18 18
26 30 30 30 30 30 29 29 28 27 27 26 26 26 24 22 22 22 21 21 20 20 20 20 20 20 19 19 19 19 19 19 19 19 19 19 18 18 18 18 19 19 18 18 18 18 18 18 18
29 30 30 31 31 30 29 29 28 28 28 27 25 24 23 22 22 22 22 22 21 20 20 20 20 20 20 19 19 19 19 19 18 18 18 18 18 18 18 19 19 19 19 18 18 18 18 18 18
30 30 31 31 30 30 30 29 29 29 29 28 26 24 23 23 23 23 22 22 21 21 20 20 20 20 20 19 19 19 19 19 19 18 18 18 18 18 18 18 19 18 18 18 18 18 18 18 18
31 31 30 30 29 29 30 29 29 29 28 27 26 25 24 23 23 23 23 22 21 20 20 20 20 19 19 19 19 19 19 19 19 18 19 18 18 18 18 18 18 18 18 18 18 18 18 18 18
31 31 30 30 29 29 29 29 29 28 27 26 25 24 24 24 23 23 22 21 21 20 20 20 20 20 20 19 19 19 19 19 19 18 19 18 18 18 18 19 18 18 18 18 18 18 18 18 18
31 30 30 30 30 29 30 29 29 28 27 26 25 25 24 24 23 23 22 21 21 20 20 20 20 20 20 20 19 19 19 19 19 18 18 18 18 18 18 18 18 18 18 18 18 18 18 18 18
30 31 31 31 30 30 30 30 29 28 27 26 26 25 24 23 23 22 22 21 21 20 20 20 20 20 20 19 19 19 19 19 19 18 18 18 18 18 18 18 18 18 18 18 18 18 18 18 18
32 32 31 31 31 30 30 30 29 27 27 27 26 25 24 23 23 22 22 21 21 20 20 20 20 20 20 20 19 19 19 19 18 18 18 18 18 18 18 18 18 18 18 18 18 18 18 18 18
32 32 31 31 31 31 31 30 29 28 28 27 26 26 25 24 23 22 22 21 21 21 20 20 20 20 20 20 19 19 19 18 18 18 18 18 18 18 18 18 18 18 18 18 18 18 18 18 18
31 32 32 31 31 31 31 31 30 28 28 28 27 26 25 24 23 23 22 22 21 21 21 20 20 20 20 20 19 19 19 19 18 18 18 18 18 18 18 18 18 18 18 18 18 18 18 18 18
32 32 31 31 31 31 31 31 30 29 28 28 27 26 26 25 24 23 22 22 21 21 21 21 20 20 20 20 19 19 19 19 18 18 18 18 18 18 18 18 18 18 18 18 18 18 18 18 18
31 31 32 31 31 31 31 31 31 30 29 28 28 27 26 25 24 23 22 22 21 21 21 21 21 20 20 20 20 19 19 19 18 18 18 18 18 18 18 18 18 18 18 18 18 18 18 18 18
31 31 31 31 31 31 31 31 31 30 29 28 27 27 27 26 25 23 22 22 21 21 21 21 21 21 20 20 20 19 19 19 18 18 18 18 18 18 18 18 18 18 17 18 18 18 17 18 17
31 32 31 31 31 31 31 31 31 31 30 29 28 27 26 26 25 24 23 22 22 21 21 21 21 21 20 20 19 19 19 19 19 18 18 18 18 18 18 18 18 18 17 17 17 17 17 17 18
31 32 31 31 31 31 31 31 31 31 30 30 29 27 27 26 25 24 24 23 22 22 21 21 21 21 21 20 20 19 19 19 19 18 18 18 18 18 18 18 18 18 17 17 17 17 17 17 17
31 31 31 31 31 30 30 30 31 31 30 30 29 28 27 26 25 24 24 23 22 22 21 21 21 21 21 20 20 19 19 19 19 18 18 18 18 18 18 18 18 17 17 17 17 17 17 17 17
31 31 30 30 30 30 31 30 30 31 30 30 29 27 26 25 25 24 24 23 22 22 21 21 20 21 20 20 20 19 19 19 19 18 18 18 17 17 18 17 17 17 17 17 17 16 16 16 16
31 31 30 29 30 31 30 30 31 30 29 28 28 27 26 25 25 25 24 23 22 22 21 21 20 20 20 20 19 19 19 19 18 18 18 18 17 17 17 17 17 17 17 16 17 16 16 16 16
31 31 32 31 30 30 31 31 30 30 29 28 28 27 26 25 25 24 24 23 22 21 21 21 20 20 20 20 19 19 19 19 19 18 18 18 17 17 17 17 17 17 17 16 16 16 16 16 16
31 31 31 31 29 29 30 30 30 29 29 29 28 27 26 25 24 24 23 23 22 21 21 20 20 20 20 19 19 19 19 19 19 18 18 18 18 17 17 17 16 16 16 16 16 16 15 15 15
30 30 30 31 30 29 29 30 30 29 29 28 28 27 26 25 24 24 23 22 22 21 21 20 20 20 19 19 19 19 19 18 18 18 18 18 17 17 17 16 16 16 16 16 16 15 15 15 15
31 30 30 30 29 29 30 30 29 29 29 28 27 26 25 24 24 23 22 22 22 21 20 20 20 19 19 19 19 19 18 18 18 18 18 17 17 17 16 16 16 16 15 15 15 15 15 15 15
Wind_Speed
11 9 5 4 3 3 10 9 7 7 6 6 6 5 6 7 6 5 5 7 7 7 8 9 7 7 7 8 8 8 8 8 8 8 9 9 9 10 11 10 10 9 9 8 9 9 9 10 9
8 6 4 4 1 7 10 8 8 8 7 6 5 5 6 7 7 6 6 7 8 8 8 8 8 8 8 8 8 7 7 8 8 8 8 8 9 9 10 10 9 8 8 8 8 8 9 10 9
7 5 3 1 6 9 9 8 8 8 6 5 5 6 6 6 6 5 7 9 8 8 7 10 8 8 8 8 8 8 7 7 8 8 7 8 9 9 9 9 8 8 7 7 7 8 8 8 8
4 4 3 2 9 9 8 7 6 6 6 5 5 7 7 6 4 7 9 9 9 8 8 11 8 8 8 8 8 8 7 7 7 7 7 8 8 9 8 8 7 7 6 7 7 7 7 7 7
4 3 1 7 11 9 8 6 5 6 6 6 6 9 8 7 8 10 9 9 8 8 8 11 10 9 8 8 8 8 7 7 7 7 7 7 7 7 7 7 6 6 6 7 7 6 7 6 6
3 2 4 9 10 9 8 6 5 6 6 6 7 9 7 7 9 9 9 8 8 8 8 10 11 9 9 8 7 7 7 6 6 6 6 6 6 6 6 6 5 4 4 5 5 6 6 6 6
3 2 7 8 9 9 7 5 5 5 6 6 5 7 7 8 9 9 8 8 8 8 8 8 9 9 9 8 7 6 6 5 5 5 5 4 4 5 5 5 5 4 4 4 4 5 6 7 7
3 1 6 7 8 8 6 5 5 5 6 6 4 5 7 9 10 9 9 8 8 7 7 7 6 6 7 8 7 6 5 4 4 4 4 3 4 5 5 6 5 5 4 4 4 5 6 6 7
3 2 7 8 7 6 5 5 5 4 6 6 5 6 10 12 11 10 9 7 7 6 5 5 5 5 5 5 7 7 6 5 5 5 4 4 3 3 5 4 4 4 4 4 4 4 5 6 8
2 4 7 6 5 5 4 4 4 4 6 6 8 9 12 12 10 10 9 8 7 6 5 4 4 4 5 4 5 4 5 5 3 3 2 2 2 1 2 5 5 4 4 5 5 5 7 8 6
1 4 4 4 3 3 4 4 3 3 4 5 7 11 12 11 9 8 8 7 6 6 5 5 4 3 3 3 3 3 3 3 3 3 1 1 1 1 1 1 4 4 4 3 5 6 4 3 2
1 2 2 2 2 2 3 4 3 2 5 5 7 12 13 11 9 8 7 7 6 5 5 4 4 4 2 2 2 2 2 2 2 3 1 1 1 1 1 1 1 1 1 0 1 1 1 1 2
0 1 2 2 2 2 3 3 3 3 4 6 9 12 12 10 9 8 7 6 6 5 5 4 4 3 3 2 1 2 2 1 2 2 2 0 1 1 1 1 1 2 1 0 1 1 1 2 2
1 0 1 2 3 4 3 3 3 3 5 7 10 11 10 10 9 8 7 7 6 5 5 4 4 4 3 3 2 1 2 2 1 2 2 1 1 1 1 1 1 1 1 1 1 0 0 1 1
3 2 3 3 2 3 3 3 2 4 6 7 8 9 9 9 9 8 7 7 7 6 6 5 5 5 4 3 3 2 2 2 2 2 2 1 1 1 1 1 1 2 2 1 0 0 0 0 1
6 4 2 3 3 2 5 2 4 5 7 7 8 8 9 8 8 8 7 7 7 6 6 5 5 5 5 4 2 2 2 2 2 2 2 1 2 2 1 2 2 2 2 1 1 1 0 0 0
4 2 0 2 3 3 4 1 5 6 7 6 7 8 9 8 9 8 8 8 7 7 7 6 6 6 5 5 3 2 2 1 1 1 1 1 1 1 1 2 2 2 1 2 2 2 1 0 0
3 3 1 0 1 3 3 2 4 6 7 6 7 7 8 9 9 9 8 8 8 7 7 7 7 6 6 5 4 2 2 2 1 1 1 1 1 1 2 1 1 2 1 1 1 1 1 0 1
6 5 3 1 0 3 3 3 4 6 7 7 7 8 8 9 9 9 9 8 8 8 8 8 7 7 6 4 4 4 3 2 1 1 2 1 1 1 1 1 1 2 1 2 2 1 0 0 0
6 6 2 1 1 3 3 4 3 6 7 7 8 8 9 9 9 10 9 9 9 9 8 8 8 7 7 5 4 3 3 2 1 1 2 1 1 1 1 1 1 1 1 1 2 2 1 1 0
7 6 4 3 3 5 5 5 5 5 6 6 7 7 8 9 10 11 10 10 9 9 9 8 8 8 7 6 5 4 3 2 2 1 1 1 1 0 1 1 2 2 2 1 1 2 1 1 1
7 4 5 5 6 4 5 5 3 5 5 6 7 8 8 9 10 10 11 10 10 9 9 9 9 8 8 7 6 6 4 3 3 2 1 1 1 0 0 1 1 2 1 1 1 2 2 2 1
6 4 5 7 8 7 6 7 3 4 4 5 6 7 8 9 10 10 10 10 9 9 9 9 9 9 8 8 7 7 5 3 3 3 2 1 1 1 0 0 1 1 1 2 3 2 3 2 2
5 5 7 8 9 8 6 7 4 2 3 3 3 4 5 6 8 9 9 9 9 9 9 9 9 8 8 9 8 7 6 4 4 4 3 2 2 1 1 1 1 1 1 1 1 2 2 2 3
9 9 7 8 8 7 4 6 4 1 1 2 2 3 4 5 6 8 9 9 9 10 9 9 10 9 9 9 8 7 6 6 5 4 3 3 2 1 1 1 1 1 1 2 2 2 2 2 2
10 11 10 9 8 6 6 6 2 1 1 0 1 2 3 4 5 7 8 9 9 10 10 10 10 9 9 9 8 7 6 5 4 4 3 3 2 2 1 2 2 2 2 2 2 2 2 2 2
10 11 11 11 11 10 7 5 5 2 1 1 2 2 2 3 4 6 7 7 8 9 10 10 10 10 9 9 8 7 7 6 5 5 4 3 3 2 2 3 2 2 2 3 3 2 3 2 3
9 9 9 10 10 10 9 8 4 2 2 2 2 2 2 2 3 4 5 6 8 8 9 9 9 9 9 8 8 7 7 7 6 5 5 4 4 3 3 3 3 2 3 3 4 3 3 3 3
9 10 9 9 10 11 9 4 1 1 1 2 2 1 2 2 3 3 4 5 7 8 8 9 9 8 8 7 7 6 6 6 6 5 5 4 4 4 4 3 3 3 3 3 4 4 4 4 4
10 10 11 10 9 10 11 4 4 2 1 1 1 2 2 2 2 3 3 4 6 7 7 8 8 8 8 8 7 6 6 6 6 5 5 5 5 4 4 4 4 4 3 4 4 5 5 5 5
Wind_Direction
171 176 197 225 229 91 66 66 65 70 67 65 68 58 59 47 33 73 97 115 119 123 126 131 120 120 116 118 120 117 121 123 126 134 139 142 143 143 146 143 143 143 145 146 149 150 150 149 148
167 178 219 237 9 74 69 67 68 65 73 87 78 66 64 63 59 97 118 121 131 124 131 125 121 122 122 123 123 121 122 122 125 132 137 139 139 139 141 148 149 147 147 147 147 151 152 152 155
174 217 256 273 53 58 69 69 73 81 83 83 83 64 54 65 80 105 120 135 134 125 127 119 126 123 122 125 126 127 126 123 124 127 130 135 138 137 138 146 150 150 149 151 150 150 153 157 160
198 219 227 67 67 60 65 75 83 91 90 79 90 86 76 68 86 110 126 135 129 128 128 120 129 125 122 123 126 128 127 127 124 126 126 126 133 137 142 145 145 154 158 156 155 155 160 159 160
232 254 113 74 66 66 72 81 84 75 76 89 90 91 87 79 98 115 127 129 128 127 124 123 127 124 122 121 122 128 129 127 125 123 125 126 129 136 143 143 149 156 164 170 166 164 163 166 167
244 256 63 70 70 69 78 86 82 81 87 95 97 96 88 107 114 119 124 126 125 125 124 124 130 126 122 120 120 125 129 127 125 123 122 127 130 140 145 151 156 156 155 163 175 176 175 178 179
303 30 62 70 75 75 70 72 65 80 90 90 98 97 107 118 121 125 125 122 121 122 123 124 132 135 135 126 122 122 126 129 127 125 124 127 134 143 153 159 162 166 170 182 189 186 187 188 190
295 332 69 68 69 74 80 78 63 65 82 93 95 100 123 133 133 130 128 123 118 120 121 124 127 127 136 136 133 132 131 132 135 132 130 143 164 166 169 173 172 178 183 197 200 195 193 194 198
266 31 57 51 57 77 96 100 87 83 102 100 85 85 118 135 139 135 129 124 124 126 127 124 126 131 131 130 132 147 149 149 165 159 161 191 175 156 169 142 159 188 196 202 199 197 190 198 198
266 42 51 42 49 77 93 93 114 126 115 112 110 109 126 140 146 144 140 138 137 137 134 128 130 131 135 126 131 147 156 144 157 131 142 158 131 136 136 144 181 196 205 204 198 201 205 215 199
4 35 42 57 67 87 102 108 127 130 107 122 137 142 146 150 153 150 147 146 140 136 136 137 133 131 131 128 132 132 139 137 144 124 132 103 111 116 108 157 177 191 203 199 184 205 211 215 211
37 42 33 64 85 108 104 119 115 103 75 101 140 149 153 158 157 155 152 149 146 143 142 136 134 140 137 127 126 137 132 122 114 125 148 121 82 35 47 21 56 157 174 168 237 220 201 222 218
121 66 61 79 115 117 123 125 112 108 109 126 141 151 159 163 161 158 156 156 156 155 151 147 144 145 144 147 177 141 127 117 121 120 135 90 66 42 43 46 19 1 10 59 249 222 182 197 199
346 301 127 124 129 135 142 137 144 120 139 145 155 160 164 169 169 164 167 170 169 169 166 162 166 160 160 162 173 171 158 146 134 125 104 64 44 30 3 32 21 7 358 5 319 327 202 231 183
228 204 163 146 160 153 186 161 131 138 157 165 168 168 171 178 179 179 180 181 180 178 177 178 176 172 177 183 192 173 178 160 153 131 115 81 54 44 358 1 352 359 357 352 331 21 343 231 209
218 220 178 145 187 194 240 143 134 163 170 175 177 175 181 187 191 187 187 190 188 186 181 186 186 175 176 183 196 184 188 169 163 154 138 95 50 28 337 348 355 355 335 353 346 336 2 52 12
212 250 171 135 179 211 236 165 141 180 184 183 185 184 187 190 197 193 193 193 193 191 189 188 189 182 177 174 179 183 174 174 161 146 109 104 93 39 324 350 0 329 343 337 332 35 342 85 167
265 276 274 326 159 221 232 232 168 189 197 196 195 195 193 198 198 194 197 197 195 194 193 191 187 182 178 173 171 180 177 177 186 149 105 85 97 55 313 291 345 315 335 339 7 7 358 293 232
278 270 277 335 213 241 231 249 210 200 205 204 205 205 206 203 194 194 196 198 197 198 196 193 192 183 181 179 183 182 181 183 163 166 141 149 158 150 296 322 7 316 340 338 334 322 256 201 220
253 255 249 170 182 257 249 257 217 204 212 215 215 210 211 207 197 195 197 196 198 197 199 195 192 187 187 182 184 182 173 170 162 162 138 171 196 263 197 334 314 342 332 342 341 330 329 0 14
241 255 268 265 243 228 256 234 212 198 209 220 224 223 219 211 203 196 198 200 200 200 198 197 192 186 188 182 177 169 167 169 168 181 178 173 201 274 350 359 333 346 334 19 358 340 344 344 352
241 250 262 246 247 247 259 272 218 205 206 218 221 220 221 214 206 203 201 203 202 199 194 193 186 183 182 183 186 189 193 191 184 190 182 175 177 197 338 340 351 346 4 17 334 25 331 319 317
255 243 244 250 255 260 244 269 243 203 229 226 218 219 219 211 205 205 207 203 204 198 192 187 182 181 181 185 187 195 200 194 179 175 163 199 168 180 236 284 344 355 8 16 356 358 332 323 315
220 221 223 236 248 248 245 260 267 248 264 250 214 212 216 209 207 206 204 198 199 194 189 181 178 180 180 185 189 193 193 188 181 180 180 198 184 186 196 215 272 297 359 2 329 324 321 327 321
221 239 242 237 236 245 215 247 270 311 309 290 250 209 207 207 205 201 197 193 192 187 185 178 176 178 180 183 186 187 189 188 189 194 190 209 203 198 191 228 243 283 304 302 309 301 320 314 305
229 240 252 263 264 252 214 243 237 106 49 316 217 182 190 196 201 197 195 193 188 184 183 181 179 179 179 180 181 183 190 195 194 197 205 203 217 218 195 216 221 252 277 284 288 285 281 292 290
229 238 255 264 269 266 246 237 225 185 185 177 165 160 174 187 197 194 191 189 185 184 184 181 178 177 179 181 181 184 191 196 194 190 201 204 213 211 200 218 223 239 255 267 268 278 282 282 284
246 240 241 250 258 261 251 240 237 211 228 199 191 175 164 169 178 181 184 185 183 181 179 174 171 173 178 181 185 185 189 194 194 194 196 204 205 209 210 221 232 241 247 252 258 253 262 271 279
214 223 238 250 256 264 263 249 49 263 221 203 191 151 127 144 155 160 169 176 175 173 172 169 167 169 172 178 184 186 189 191 194 198 202 206 211 208 213 221 233 240 248 254 257 264 266 271 277
232 234 233 242 247 253 267 259 93 92 119 128 114 111 90 87 122 133 136 149 164 168 167 168 171 174 176 177 179 183 187 190 193 197 203 207 213 218 215 225 236 247 253 259 261 263 260 262 268
Height
1509 1510 1511 1513 1508 1501 1502 1499 1496 1498 1500 1503 1504 1504 1504 1506 1510 1519 1520 1519 1519 1520 1520 1520 1520 1521 1521 1521 1522 1522 1522 1522 1522 1523 1524 1525 1525 1526 1527 1528 1529 1530 1531 1533 1534 1535 1536 1537 1538
1511 1511 1513 1511 1501 1505 1506 1499 1500 1501 1504 1506 1506 1507 1507 1511 1515 1518 1519 1520 1521 1521 1522 1522 1521 1522 1522 1523 1523 1523 1523 1524 1524 1524 1525 1526 1526 1527 1528 1529 1530 1531 1532 1533 1534 1535 1536 1537 1539
1512 1512 1513 1503 1500 1505 1506 1501 1502 1504 1507 1507 1508 1509 1511 1515 1518 1519 1520 1521 1522 1523 1523 1522 1522 1523 1524 1524 1525 1525 1525 1525 1525 1526 1526 1527 1527 1528 1529 1530 1531 1532 1533 1534 1535 1535 1537 1538 1540
1513 1514 1510 1502 1503 1501 1501 1502 1504 1505 1507 1508 1508 1511 1515 1519 1520 1521 1521 1522 1523 1524 1525 1524 1524 1524 1525 1525 1526 1526 1526 1527 1527 1527 1527 1528 1528 1529 1530 1531 1531 1532 1533 1534 1535 1536 1537 1538 1540
1514 1511 1502 1502 1502 1501 1501 1504 1505 1505 1506 1509 1509 1512 1517 1521 1521 1521 1522 1523 1524 1525 1526 1526 1525 1526 1526 1526 1527 1528 1528 1528 1528 1529 1529 1529 1530 1530 1531 1531 1532 1533 1534 1534 1536 1537 1538 1539 1540
1513 1506 1502 1506 1504 1502 1502 1505 1505 1506 1508 1510 1511 1513 1519 1522 1522 1523 1524 1525 1525 1526 1527 1527 1527 1527 1527 1528 1528 1529 1529 1530 1530 1530 1530 1531 1531 1531 1532 1533 1533 1534 1534 1535 1536 1537 1538 1539 1540
1511 1502 1502 1502 1504 1504 1505 1506 1506 1507 1509 1512 1513 1514 1520 1523 1524 1524 1525 1526 1527 1528 1529 1529 1529 1529 1529 1529 1530 1530 1531 1531 1531 1531 1532 1532 1532 1533 1533 1533 1534 1534 1535 1536 1536 1537 1538 1539 1539
1511 1502 1499 1500 1503 1505 1506 1507 1509 1509 1511 1515 1515 1515 1520 1523 1524 1525 1527 1528 1528 1529 1530 1531 1531 1532 1532 1532 1531 1531 1532 1532 1532 1532 1533 1533 1533 1533 1533 1534 1534 1535 1535 1536 1536 1537 1538 1538 1539
1511 1502 1503 1502 1503 1504 1506 1507 1511 1512 1513 1515 1517 1518 1520 1523 1525 1526 1528 1529 1530 1531 1532 1532 1533 1533 1533 1534 1533 1533 1533 1533 1533 1534 1534 1534 1535 1535 1535 1535 1535 1535 1535 1536 1536 1537 1537 1538 1538
1508 1503 1504 1502 1502 1503 1506 1507 1510 1511 1512 1515 1518 1520 1522 1524 1526 1527 1528 1530 1531 1531 1532 1533 1533 1534 1535 1535 1534 1534 1535 1535 1535 1535 1535 1535 1535 1535 1536 1535 1535 1535 1535 1536 1536 1537 1537 1538 1539
1505 1503 1503 1503 1504 1505 1506 1508 1509 1509 1510 1514 1517 1520 1522 1524 1526 1528 1529 1530 1531 1532 1533 1534 1534 1535 1535 1535 1536 1536 1536 1536 1536 1536 1536 1536 1536 1536 1536 1536 1536 1536 1536 1536 1537 1537 1538 1539 1539
1505 1505 1505 1505 1506 1506 1506 1507 1509 1510 1512 1515 1517 1520 1522 1525 1526 1528 1529 1531 1532 1533 1533 1534 1535 1535 1535 1536 1537 1537 1537 1537 1537 1537 1537 1537 1537 1537 1537 1536 1537 1537 1537 1536 1537 1537 1537 1538 1538
1504 1505 1506 1506 1506 1507 1508 1508 1509 1512 1514 1516 1518 1520 1523 1525 1527 1529 1530 1531 1532 1533 1534 1534 1535 1535 1535 1536 1537 1538 1538 1538 1538 1538 1537 1537 1538 1538 1537 1536 1537 1537 1537 1537 1537 1537 1537 1537 1538
1505 1505 1505 1505 1506 1507 1507 1508 1510 1513 1515 1516 1518 1520 1523 1525 1526 1528 1530 1531 1532 1533 1534 1534 1535 1535 1536 1536 1537 1538 1539 1538 1539 1539 1538 1538 1538 1538 1538 1537 1537 1538 1537 1537 1536 1536 1536 1537 1537
1506 1503 1503 1504 1505 1506 1506 1507 1509 1512 1515 1516 1518 1520 1523 1525 1526 1528 1529 1531 1532 1532 1533 1534 1535 1535 1536 1536 1537 1538 1539 1539 1539 1539 1539 1538 1539 1538 1538 1538 1537 1538 1537 1536 1536 1536 1536 1536 1536
1501 1499 1502 1501 1503 1505 1506 1507 1509 1512 1513 1515 1517 1520 1522 1524 1526 1527 1529 1530 1531 1532 1532 1533 1535 1535 1535 1536 1537 1538 1539 1539 1539 1539 1539 1538 1538 1538 1538 1538 1538 1537 1537 1537 1536 1536 1535 1535 1535
1498 1501 1502 1501 1500 1501 1502 1503 1507 1510 1512 1513 1516 1518 1521 1523 1525 1526 1527 1528 1529 1530 1531 1532 1533 1534 1535 1536 1536 1537 1538 1538 1539 1539 1539 1538 1538 1538 1539 1539 1538 1538 1537 1537 1536 1535 1535 1535 1534
1504 1500 1501 1501 1498 1499 1501 1501 1504 1508 1510 1512 1514 1516 1519 1520 1522 1524 1525 1527 1528 1529 1529 1531 1532 1533 1534 1535 1536 1537 1537 1538 1538 1538 1538 1538 1538 1538 1539 1539 1538 1538 1538 1537 1536 1535 1534 1534 1534
1498 1499 1500 1499 1497 1498 1500 1500 1501 1505 1507 1509 1512 1514 1516 1518 1520 1522 1523 1524 1526 1527 1528 1529 1531 1532 1533 1534 1535 1536 1537 1537 1538 1538 1537 1537 1537 1538 1538 1539 1538 1537 1537 1536 1536 1535 1535 1535 1534
1498 1499 1499 1498 1497 1499 1498 1499 1498 1502 1504 1507 1509 1511 1514 1516 1518 1519 1521 1522 1523 1524 1526 1527 1529 1530 1532 1533 1534 1535 1536 1536 1537 1537 1536 1536 1537 1537 1537 1537 1538 1537 1537 1536 1535 1535 1535 1535 1534
1497 1498 1498 1500 1498 1496 1498 1499 1497 1498 1502 1505 1507 1508 1510 1512 1514 1516 1518 1520 1521 1522 1523 1525 1527 1529 1530 1531 1533 1534 1534 1535 1536 1536 1536 1536 1536 1537 1536 1536 1537 1536 1537 1536 1535 1534 1534 1535 1534
1498 1493 1496 1498 1501 1498 1499 1506 1496 1493 1497 1501 1503 1505 1507 1509 1511 1513 1515 1517 1519 1520 1522 1523 1525 1526 1528 1530 1531 1532 1533 1534 1535 1535 1536 1536 1536 1536 1536 1535 1535 1535 1536 1535 1535 1534 1534 1534 1534
1493 1492 1495 1496 1497 1499 1498 1502 1495 1490 1494 1495 1499 1501 1503 1505 1508 1510 1512 1514 1516 1518 1520 1521 1522 1524 1526 1528 1529 1531 1532 1533 1534 1535 1535 1535 1535 1535 1535 1535 1535 1534 1535 1534 1534 1533 1533 1533 1533
1492 1494 1495 1494 1494 1507 1500 1502 1500 1489 1491 1491 1495 1499 1501 1503 1505 1508 1510 1512 1514 1516 1518 1519 1520 1521 1524 1526 1527 1529 1530 1531 1532 1533 1533 1534 1534 1534 1534 1534 1534 1534 1534 1533 1533 1532 1532 1532 1531
1491 1497 1506 1509 1507 1504 1493 1498 1497 1487 1489 1491 1494 1496 1499 1501 1502 1504 1507 1509 1511 1513 1515 1516 1517 1519 1522 1524 1525 1527 1528 1529 1530 1531 1531 1532 1533 1533 1532 1533 1532 1532 1532 1531 1531 1531 1530 1530 1529
1488 1491 1506 1514 1509 1498 1495 1496 1490 1487 1490 1492 1494 1496 1497 1498 1500 1501 1504 1506 1508 1510 1512 1514 1515 1517 1519 1521 1523 1525 1526 1528 1529 1529 1530 1530 1531 1532 1531 1531 1530 1530 1530 1530 1529 1529 1529 1528 1527
1488 1488 1483 1492 1495 1499 1492 1489 1486 1486 1489 1491 1493 1494 1496 1497 1498 1499 1502 1504 1505 1507 1509 1512 1513 1515 1517 1519 1521 1522 1524 1525 1526 1527 1527 1528 1529 1529 1529 1529 1529 1528 1528 1528 1527 1527 1526 1526 1526
1482 1482 1485 1492 1507 1508 1497 1492 1488 1487 1488 1489 1491 1493 1495 1496 1497 1498 1500 1502 1504 1506 1507 1509 1511 1513 1515 1517 1518 1520 1521 1522 1523 1524 1525 1525 1526 1527 1527 1527 1526 1526 1526 1525 1525 1525 1524 1523 1523
1485 1486 1486 1486 1489 1501 1503 1494 1481 1485 1486 1489 1491 1493 1494 1495 1496 1497 1499 1500 1502 1504 1506 1507 1509 1510 1512 1514 1516 1517 1519 1520 1521 1522 1523 1523 1524 1524 1524 1524 1524 1524 1523 1523 1522 1522 1521 1520 1520
1478 1479 1483 1492 1494 1491 1492 1493 1482 1484 1486 1488 1491 1493 1495 1496 1496 1497 1498 1499 1501 1502 1504 1505 1506 1508 1510 1512 1513 1515 1516 1517 1518 1519 1520 1521 1521 1522 1522 1522 1522 1521 1521 1520 1519 1518 1518 1517 1517